Time,TemperatureF,DewpointF,PressureIn,WindDirection,WindDirectionDegrees,WindSpeedMPH,WindSpeedGustMPH,Humidity,HourlyPrecipIn,Conditions,Clouds,dailyrainin,SoftwareType,DateUTC
2013-05-21 00:02:00,67.6,66.1,29.95,East,101,0.0,0.0,95,0.00,,,0.00,Wunderground v.1.15,2013-05-21 04:02:00,
2013-05-21 00:03:00,67.5,66.0,29.95,East,101,0.0,0.0,95,0.00,,,0.00,Wunderground v.1.15,2013-05-21 04:03:00,
2013-05-21 00:05:00,67.4,65.9,29.94,East,101,0.0,0.0,95,0.00,,,0.00,Wunderground v.1.15,2013-05-21 04:05:00,
2013-05-21 00:11:00,67.3,65.8,29.94,East,101,0.0,0.0,95,0.00,,,0.00,Wunderground v.1.15,2013-05-21 04:11:00,
2013-05-21 00:14:00,67.2,65.7,29.94,East,101,0.0,0.0,95,0.00,,,0.00,Wunderground v.1.15,2013-05-21 04:14:00,
2013-05-21 00:15:00,67.1,65.6,29.94,East,101,0.0,0.0,95,0.00,,,0.00,Wunderground v.1.15,2013-05-21 04:15:00,
2013-05-21 00:21:00,66.9,65.7,29.94,East,101,0.0,0.0,96,0.00,,,0.00,Wunderground v.1.15,2013-05-21 04:21:00,
2013-05-21 00:26:00,66.7,65.5,29.94,East,101,0.0,0.0,96,0.00,,,0.00,Wunderground v.1.15,2013-05-21 04:26:00,
2013-05-21 00:32:00,66.5,65.3,29.94,East,101,0.0,0.0,96,0.00,,,0.00,Wunderground v.1.15,2013-05-21 04:32:00,
2013-05-21 00:37:00,66.5,65.3,29.94,East,101,0.0,0.0,96,0.00,,,0.00,Wunderground v.1.15,2013-05-21 04:37:00,
2013-05-21 00:42:00,66.4,65.2,29.94,East,101,0.0,0.0,96,0.00,,,0.00,Wunderground v.1.15,2013-05-21 04:42:00,
2013-05-21 00:48:00,66.4,65.2,29.94,East,101,0.0,0.0,96,0.00,,,0.00,Wunderground v.1.15,2013-05-21 04:48:00,
2013-05-21 00:53:00,66.4,65.5,29.94,East,101,0.0,0.0,97,0.00,,,0.00,Wunderground v.1.15,2013-05-21 04:53:00,
2013-05-21 00:59:00,66.4,65.5,29.94,East,101,0.0,0.0,97,0.00,,,0.00,Wunderground v.1.15,2013-05-21 04:59:00,
2013-05-21 01:04:00,66.3,65.4,29.93,East,101,0.0,0.0,97,0.00,,,0.00,Wunderground v.1.15,2013-05-21 05:04:00,
2013-05-21 01:09:00,66.3,65.4,29.93,East,101,0.0,0.0,97,0.00,,,0.00,Wunderground v.1.15,2013-05-21 05:09:00,
2013-05-21 01:15:00,66.2,65.3,29.93,East,101,0.0,0.0,97,0.00,,,0.00,Wunderground v.1.15,2013-05-21 05:15:00,
2013-05-21 01:21:00,66.1,65.2,29.93,East,101,0.0,0.0,97,0.00,,,0.00,Wunderground v.1.15,2013-05-21 05:21:00,
2013-05-21 01:26:00,66.0,64.8,29.93,East,101,0.0,0.0,96,0.00,,,0.00,Wunderground v.1.15,2013-05-21 05:26:00,
2013-05-21 01:32:00,65.8,64.9,29.93,East,101,0.0,0.0,97,0.00,,,0.00,Wunderground v.1.15,2013-05-21 05:32:00,
2013-05-21 01:37:00,65.7,64.8,29.92,East,101,0.0,0.0,97,0.00,,,0.00,Wunderground v.1.15,2013-05-21 05:37:00,
2013-05-21 01:42:00,65.6,64.7,29.92,East,101,0.0,0.0,97,0.00,,,0.00,Wunderground v.1.15,2013-05-21 05:42:00,
2013-05-21 01:48:00,65.5,64.6,29.92,East,101,0.0,0.0,97,0.00,,,0.00,Wunderground v.1.15,2013-05-21 05:48:00,
2013-05-21 01:53:00,65.4,64.5,29.92,East,101,0.0,0.0,97,0.00,,,0.00,Wunderground v.1.15,2013-05-21 05:53:00,
2013-05-21 01:58:00,65.3,64.4,29.92,East,101,0.0,0.0,97,0.00,,,0.00,Wunderground v.1.15,2013-05-21 05:58:00,
2013-05-21 02:03:00,65.3,64.4,29.92,North,-999,0.0,0.0,97,0.00,,,-99.99,WeatherLink 6.0.0,2013-05-21 06:03:00,
2013-05-21 02:08:00,65.0,64.1,29.92,East,101,0.0,0.0,97,0.00,,,0.00,Wunderground v.1.15,2013-05-21 06:08:00,
2013-05-21 02:13:00,64.9,64.0,29.92,East,101,0.0,0.0,97,0.00,,,0.00,Wunderground v.1.15,2013-05-21 06:13:00,
2013-05-21 02:18:00,64.8,63.9,29.92,East,101,0.0,0.0,97,0.00,,,0.00,Wunderground v.1.15,2013-05-21 06:18:00,
2013-05-21 02:23:00,64.9,64.0,29.92,East,101,0.0,0.0,97,0.00,,,0.00,Wunderground v.1.15,2013-05-21 06:23:00,
2013-05-21 02:28:00,64.8,63.9,29.92,East,101,0.0,0.0,97,0.00,,,0.00,Wunderground v.1.15,2013-05-21 06:28:00,
2013-05-21 02:30:00,64.7,63.8,29.92,North,-999,0.0,0.0,97,0.00,,,-99.99,WeatherLink 6.0.0,2013-05-21 06:30:00,
2013-05-21 02:33:00,64.6,63.7,29.92,East,101,0.0,0.0,97,0.00,,,0.00,Wunderground v.1.15,2013-05-21 06:33:00,
2013-05-21 02:38:00,64.4,63.5,29.92,East,101,0.0,0.0,97,0.00,,,0.00,Wunderground v.1.15,2013-05-21 06:38:00,
2013-05-21 02:43:00,64.2,63.3,29.92,East,101,0.0,0.0,97,0.00,,,0.00,Wunderground v.1.15,2013-05-21 06:43:00,
2013-05-21 02:48:00,64.1,63.2,29.92,East,101,0.0,0.0,97,0.00,,,0.00,Wunderground v.1.15,2013-05-21 06:48:00,
2013-05-21 02:53:00,64.1,63.2,29.92,East,101,0.0,0.0,97,0.00,,,0.00,Wunderground v.1.15,2013-05-21 06:53:00,
2013-05-21 02:58:00,64.0,63.1,29.92,East,101,0.0,1.0,97,0.00,,,0.00,Wunderground v.1.15,2013-05-21 06:58:00,
2013-05-21 03:00:00,64.0,63.1,29.92,East,90,0.0,1.0,97,0.00,,,-99.99,WeatherLink 6.0.0,2013-05-21 07:00:00,
2013-05-21 03:04:00,63.9,63.0,29.92,East,101,0.0,0.0,97,0.00,,,0.00,Wunderground v.1.15,2013-05-21 07:04:00,
2013-05-21 03:09:00,63.9,63.3,29.92,East,101,0.0,0.0,98,0.00,,,0.00,Wunderground v.1.15,2013-05-21 07:09:00,
2013-05-21 03:14:00,63.8,62.9,29.92,East,101,0.0,0.0,97,0.00,,,0.00,Wunderground v.1.15,2013-05-21 07:14:00,
2013-05-21 03:19:00,63.8,62.9,29.91,East,101,0.0,0.0,97,0.00,,,0.00,Wunderground v.1.15,2013-05-21 07:19:00,
2013-05-21 03:24:00,63.8,62.9,29.92,East,101,0.0,0.0,97,0.00,,,0.00,Wunderground v.1.15,2013-05-21 07:24:00,
2013-05-21 03:29:00,63.8,63.2,29.92,East,101,0.0,0.0,98,0.00,,,0.00,Wunderground v.1.15,2013-05-21 07:29:00,
2013-05-21 03:30:00,63.8,63.2,29.92,North,-999,0.0,0.0,98,0.00,,,-99.99,WeatherLink 6.0.0,2013-05-21 07:30:00,
2013-05-21 03:34:00,63.8,63.2,29.92,East,101,0.0,0.0,98,0.00,,,0.00,Wunderground v.1.15,2013-05-21 07:34:00,
2013-05-21 03:39:00,63.8,63.2,29.92,East,101,0.0,0.0,98,0.00,,,0.00,Wunderground v.1.15,2013-05-21 07:39:00,
2013-05-21 03:44:00,63.8,63.2,29.92,East,101,0.0,0.0,98,0.00,,,0.00,Wunderground v.1.15,2013-05-21 07:44:00,
2013-05-21 03:49:00,63.7,63.1,29.92,East,101,0.0,0.0,98,0.00,,,0.00,Wunderground v.1.15,2013-05-21 07:49:00,
2013-05-21 03:54:00,63.6,63.0,29.92,East,101,0.0,0.0,98,0.00,,,0.00,Wunderground v.1.15,2013-05-21 07:54:00,
2013-05-21 03:59:00,63.4,62.8,29.92,East,101,0.0,0.0,98,0.00,,,0.00,Wunderground v.1.15,2013-05-21 07:59:00,
2013-05-21 04:04:00,63.4,62.8,29.92,East,101,0.0,0.0,98,0.00,,,0.00,Wunderground v.1.15,2013-05-21 08:04:00,
2013-05-21 04:09:00,63.2,62.6,29.92,East,101,0.0,0.0,98,0.00,,,0.00,Wunderground v.1.15,2013-05-21 08:09:00,
2013-05-21 04:14:00,63.1,62.5,29.92,East,101,0.0,0.0,98,0.00,,,0.00,Wunderground v.1.15,2013-05-21 08:14:00,
2013-05-21 04:19:00,63.1,62.5,29.92,East,101,0.0,0.0,98,0.00,,,0.00,Wunderground v.1.15,2013-05-21 08:19:00,
2013-05-21 04:24:00,63.0,62.4,29.92,East,101,0.0,0.0,98,0.00,,,0.00,Wunderground v.1.15,2013-05-21 08:24:00,
2013-05-21 04:29:00,63.0,62.4,29.92,East,101,0.0,0.0,98,0.00,,,0.00,Wunderground v.1.15,2013-05-21 08:29:00,
2013-05-21 04:30:00,63.0,62.4,29.92,North,-999,0.0,0.0,98,0.00,,,-99.99,WeatherLink 6.0.0,2013-05-21 08:30:00,
2013-05-21 04:34:00,63.0,62.4,29.92,East,101,0.0,0.0,98,0.00,,,0.00,Wunderground v.1.15,2013-05-21 08:34:00,
2013-05-21 04:39:00,62.9,62.3,29.92,East,101,0.0,0.0,98,0.00,,,0.00,Wunderground v.1.15,2013-05-21 08:39:00,
2013-05-21 04:44:00,62.9,62.3,29.92,East,101,0.0,0.0,98,0.00,,,0.00,Wunderground v.1.15,2013-05-21 08:44:00,
2013-05-21 04:49:00,62.8,62.2,29.92,East,101,0.0,0.0,98,0.00,,,0.00,Wunderground v.1.15,2013-05-21 08:49:00,
2013-05-21 04:54:00,62.8,62.2,29.92,East,101,0.0,0.0,98,0.00,,,0.00,Wunderground v.1.15,2013-05-21 08:54:00,
2013-05-21 04:59:00,62.7,62.1,29.92,East,101,0.0,0.0,98,0.00,,,0.00,Wunderground v.1.15,2013-05-21 08:59:00,
2013-05-21 05:04:00,62.6,62.0,29.92,East,101,0.0,0.0,98,0.00,,,0.00,Wunderground v.1.15,2013-05-21 09:04:00,
2013-05-21 05:10:00,62.6,62.0,29.92,East,101,0.0,0.0,98,0.00,,,0.00,Wunderground v.1.15,2013-05-21 09:10:00,
2013-05-21 05:15:00,62.5,61.9,29.93,East,101,0.0,0.0,98,0.00,,,0.00,Wunderground v.1.15,2013-05-21 09:15:00,
2013-05-21 05:20:00,62.4,61.8,29.93,East,101,0.0,0.0,98,0.00,,,0.00,Wunderground v.1.15,2013-05-21 09:20:00,
2013-05-21 05:25:00,62.3,61.7,29.93,East,101,0.0,0.0,98,0.00,,,0.00,Wunderground v.1.15,2013-05-21 09:25:00,
2013-05-21 05:30:00,62.2,61.6,29.93,East,101,0.0,0.0,98,0.00,,,0.00,Wunderground v.1.15,2013-05-21 09:30:00,
2013-05-21 05:35:00,62.2,61.6,29.93,East,101,0.0,0.0,98,0.00,,,0.00,Wunderground v.1.15,2013-05-21 09:35:00,
2013-05-21 05:40:00,62.1,61.5,29.93,East,101,0.0,0.0,98,0.00,,,0.00,Wunderground v.1.15,2013-05-21 09:40:00,
2013-05-21 05:45:00,62.0,61.4,29.93,East,101,0.0,0.0,98,0.00,,,0.00,Wunderground v.1.15,2013-05-21 09:45:00,
2013-05-21 05:50:00,62.1,61.5,29.93,East,101,0.0,0.0,98,0.00,,,0.00,Wunderground v.1.15,2013-05-21 09:50:00,
2013-05-21 05:55:00,62.1,61.5,29.93,East,101,0.0,0.0,98,0.00,,,0.00,Wunderground v.1.15,2013-05-21 09:55:00,
2013-05-21 06:00:00,62.1,61.5,29.93,East,101,0.0,0.0,98,0.00,,,0.00,Wunderground v.1.15,2013-05-21 10:00:00,
2013-05-21 06:05:00,62.1,61.5,29.93,East,101,0.0,0.0,98,0.00,,,0.00,Wunderground v.1.15,2013-05-21 10:05:00,
2013-05-21 06:10:00,62.0,61.4,29.93,East,101,0.0,0.0,98,0.00,,,0.00,Wunderground v.1.15,2013-05-21 10:10:00,
2013-05-21 06:16:00,62.0,61.4,29.94,East,101,0.0,0.0,98,0.00,,,0.00,Wunderground v.1.15,2013-05-21 10:16:00,
2013-05-21 06:21:00,61.8,61.2,29.94,East,101,0.0,0.0,98,0.00,,,0.00,Wunderground v.1.15,2013-05-21 10:21:00,
2013-05-21 06:26:00,61.7,61.1,29.94,East,101,0.0,0.0,98,0.00,,,0.00,Wunderground v.1.15,2013-05-21 10:26:00,
2013-05-21 06:31:00,61.5,60.9,29.94,East,101,0.0,0.0,98,0.00,,,0.00,Wunderground v.1.15,2013-05-21 10:31:00,
2013-05-21 06:36:00,61.3,60.7,29.95,East,101,0.0,0.0,98,0.00,,,0.00,Wunderground v.1.15,2013-05-21 10:36:00,
2013-05-21 06:41:00,61.2,60.6,29.95,East,101,0.0,0.0,98,0.00,,,0.00,Wunderground v.1.15,2013-05-21 10:41:00,
2013-05-21 06:46:00,61.1,60.5,29.95,East,101,0.0,0.0,98,0.00,,,0.00,Wunderground v.1.15,2013-05-21 10:46:00,
2013-05-21 06:51:00,61.2,60.6,29.95,East,101,0.0,0.0,98,0.00,,,0.00,Wunderground v.1.15,2013-05-21 10:51:00,
2013-05-21 06:56:00,61.2,60.6,29.95,East,101,0.0,0.0,98,0.00,,,0.00,Wunderground v.1.15,2013-05-21 10:56:00,
2013-05-21 07:01:00,61.4,60.8,29.95,East,101,0.0,0.0,98,0.00,,,0.00,Wunderground v.1.15,2013-05-21 11:01:00,
2013-05-21 07:06:00,61.6,61.0,29.96,East,101,0.0,0.0,98,0.00,,,0.00,Wunderground v.1.15,2013-05-21 11:06:00,
2013-05-21 07:11:00,61.9,61.3,29.96,East,101,0.0,0.0,98,0.00,,,0.00,Wunderground v.1.15,2013-05-21 11:11:00,
2013-05-21 07:16:00,62.2,61.6,29.97,East,101,0.0,0.0,98,0.00,,,0.00,Wunderground v.1.15,2013-05-21 11:16:00,
2013-05-21 07:21:00,62.3,61.7,29.97,East,101,0.0,0.0,98,0.00,,,0.00,Wunderground v.1.15,2013-05-21 11:21:00,
2013-05-21 07:26:00,62.5,61.9,29.96,East,101,0.0,0.0,98,0.00,,,0.00,Wunderground v.1.15,2013-05-21 11:26:00,
2013-05-21 07:31:00,62.7,62.1,29.97,East,101,0.0,0.0,98,0.00,,,0.00,Wunderground v.1.15,2013-05-21 11:31:00,
2013-05-21 07:36:00,63.0,62.4,29.97,East,101,0.0,0.0,98,0.00,,,0.00,Wunderground v.1.15,2013-05-21 11:36:00,
2013-05-21 07:41:00,63.2,62.6,29.97,East,101,0.0,0.0,98,0.00,,,0.00,Wunderground v.1.15,2013-05-21 11:41:00,
2013-05-21 07:46:00,63.4,62.8,29.97,East,101,0.0,1.0,98,0.00,,,0.00,Wunderground v.1.15,2013-05-21 11:46:00,
2013-05-21 07:51:00,63.8,63.5,29.97,East,101,0.0,0.0,99,0.00,,,0.00,Wunderground v.1.15,2013-05-21 11:51:00,
2013-05-21 07:56:00,64.1,63.5,29.97,East,101,0.0,0.0,98,0.00,,,0.00,Wunderground v.1.15,2013-05-21 11:56:00,
2013-05-21 08:00:00,64.3,64.0,29.97,East,90,0.0,1.0,99,0.00,,,-99.99,WeatherLink 6.0.0,2013-05-21 12:00:00,
2013-05-21 08:01:00,64.4,64.1,29.98,East,101,0.0,0.0,99,0.00,,,0.00,Wunderground v.1.15,2013-05-21 12:01:00,
2013-05-21 08:06:00,64.7,64.1,29.98,East,101,0.0,1.0,98,0.00,,,0.00,Wunderground v.1.15,2013-05-21 12:06:00,
2013-05-21 08:11:00,65.2,64.9,29.97,East,101,0.0,0.0,99,0.00,,,0.00,Wunderground v.1.15,2013-05-21 12:11:00,
2013-05-21 08:17:00,65.5,65.2,29.97,East,101,0.0,1.0,99,0.00,,,0.00,Wunderground v.1.15,2013-05-21 12:17:00,
2013-05-21 08:22:00,65.7,65.4,29.97,East,101,0.0,1.0,99,0.00,,,0.00,Wunderground v.1.15,2013-05-21 12:22:00,
2013-05-21 08:27:00,66.1,65.8,29.96,East,101,0.0,1.0,99,0.00,,,0.00,Wunderground v.1.15,2013-05-21 12:27:00,
2013-05-21 08:32:00,66.8,66.5,29.97,East,101,0.0,0.0,99,0.00,,,0.00,Wunderground v.1.15,2013-05-21 12:32:00,
2013-05-21 08:37:00,67.7,67.1,29.96,East,101,0.0,1.0,98,0.00,,,0.00,Wunderground v.1.15,2013-05-21 12:37:00,
2013-05-21 08:42:00,68.5,67.9,29.97,ESE,104,0.0,1.0,98,0.00,,,0.00,Wunderground v.1.15,2013-05-21 12:42:00,
2013-05-21 08:47:00,69.3,68.4,29.97,ESE,104,0.0,1.0,97,0.00,,,0.00,Wunderground v.1.15,2013-05-21 12:47:00,
2013-05-21 08:52:00,70.4,68.9,29.96,ESE,104,0.0,0.0,95,0.00,,,0.00,Wunderground v.1.15,2013-05-21 12:52:00,
2013-05-21 08:57:00,71.3,69.2,29.97,ESE,103,0.0,2.0,93,0.00,,,0.00,Wunderground v.1.15,2013-05-21 12:57:00,
2013-05-21 09:02:00,71.8,69.0,29.97,East,89,0.0,2.0,91,0.00,,,0.00,Wunderground v.1.15,2013-05-21 13:02:00,
2013-05-21 09:07:00,72.1,69.3,29.97,East,89,0.0,2.0,91,0.00,,,0.00,Wunderground v.1.15,2013-05-21 13:07:00,
2013-05-21 09:12:00,72.2,69.1,29.97,East,84,0.0,2.0,90,0.00,,,0.00,Wunderground v.1.15,2013-05-21 13:12:00,
2013-05-21 09:17:00,72.7,69.6,29.97,East,84,0.0,2.0,90,0.00,,,0.00,Wunderground v.1.15,2013-05-21 13:17:00,
2013-05-21 09:22:00,73.7,69.9,29.97,East,85,0.0,0.0,88,0.00,,,0.00,Wunderground v.1.15,2013-05-21 13:22:00,
2013-05-21 09:27:00,74.6,70.5,29.97,East,85,1.0,1.0,87,0.00,,,0.00,Wunderground v.1.15,2013-05-21 13:27:00,
2013-05-21 09:30:00,75.1,70.3,29.97,East,90,0.0,2.0,85,0.00,,,-99.99,WeatherLink 6.0.0,2013-05-21 13:30:00,
2013-05-21 09:32:00,75.4,70.6,29.97,East,92,0.0,1.0,85,0.00,,,0.00,Wunderground v.1.15,2013-05-21 13:32:00,
2013-05-21 09:37:00,75.8,70.6,29.97,NNE,32,2.0,2.0,84,0.00,,,0.00,Wunderground v.1.15,2013-05-21 13:37:00,
2013-05-21 09:42:00,75.5,70.3,29.97,NNE,24,0.0,4.0,84,0.00,,,0.00,Wunderground v.1.15,2013-05-21 13:42:00,
2013-05-21 09:47:00,75.5,71.0,29.97,NNE,16,0.0,4.0,86,0.00,,,0.00,Wunderground v.1.15,2013-05-21 13:47:00,
2013-05-21 09:52:00,76.2,71.0,29.97,NNE,32,1.0,2.0,84,0.00,,,0.00,Wunderground v.1.15,2013-05-21 13:52:00,
2013-05-21 09:57:00,77.0,70.7,29.97,NE,34,0.0,4.0,81,0.00,,,0.00,Wunderground v.1.15,2013-05-21 13:57:00,
2013-05-21 10:00:00,77.3,71.4,29.97,NNE,22,0.0,4.0,82,0.00,,,-99.99,WeatherLink 6.0.0,2013-05-21 14:00:00,
2013-05-21 10:03:00,77.5,70.8,29.97,NE,35,0.0,2.0,80,0.00,,,0.00,Wunderground v.1.15,2013-05-21 14:03:00,
2013-05-21 10:07:00,77.3,70.6,29.97,NE,34,0.0,2.0,80,0.00,,,0.00,Wunderground v.1.15,2013-05-21 14:07:00,
2013-05-21 10:13:00,77.0,70.7,29.98,NE,34,0.0,5.0,81,0.00,,,0.00,Wunderground v.1.15,2013-05-21 14:13:00,
2013-05-21 10:18:00,77.4,71.1,29.98,NE,37,0.0,5.0,81,0.00,,,0.00,Wunderground v.1.15,2013-05-21 14:18:00,
2013-05-21 10:23:00,77.8,71.1,29.97,NNE,29,0.0,3.0,80,0.00,,,0.00,Wunderground v.1.15,2013-05-21 14:23:00,
2013-05-21 10:27:00,77.5,71.2,29.97,NE,36,0.0,3.0,81,0.00,,,0.00,Wunderground v.1.15,2013-05-21 14:27:00,
2013-05-21 10:32:00,78.0,72.1,29.97,NE,37,0.0,1.0,82,0.00,,,0.00,Wunderground v.1.15,2013-05-21 14:32:00,
2013-05-21 10:37:00,78.7,71.3,29.97,NE,37,0.0,1.0,78,0.00,,,0.00,Wunderground v.1.15,2013-05-21 14:37:00,
2013-05-21 10:42:00,79.0,71.6,29.96,NE,37,0.0,1.0,78,0.00,,,0.00,Wunderground v.1.15,2013-05-21 14:42:00,
2013-05-21 10:47:00,79.1,72.0,29.96,NNE,32,0.0,4.0,79,0.00,,,0.00,Wunderground v.1.15,2013-05-21 14:47:00,
2013-05-21 10:53:00,78.7,71.3,29.96,North,355,1.0,2.0,78,0.00,,,0.00,Wunderground v.1.15,2013-05-21 14:53:00,
2013-05-21 10:58:00,79.3,71.5,29.96,North,5,0.0,2.0,77,0.00,,,0.00,Wunderground v.1.15,2013-05-21 14:58:00,
2013-05-21 11:03:00,79.4,71.6,29.96,North,0,0.0,6.0,77,0.00,,,-99.99,WeatherLink 6.0.0,2013-05-21 15:03:00,
2013-05-21 11:08:00,80.2,71.6,29.96,NNE,21,0.0,1.0,75,0.00,,,0.00,Wunderground v.1.15,2013-05-21 15:08:00,
2013-05-21 11:13:00,81.2,72.1,29.96,ESE,114,1.0,3.0,74,0.00,,,0.00,Wunderground v.1.15,2013-05-21 15:13:00,
2013-05-21 11:18:00,82.3,72.0,29.96,ESE,114,0.0,3.0,71,0.00,,,0.00,Wunderground v.1.15,2013-05-21 15:18:00,
2013-05-21 11:23:00,83.1,71.9,29.95,SSW,205,2.0,4.0,69,0.00,,,0.00,Wunderground v.1.15,2013-05-21 15:23:00,
2013-05-21 11:28:00,83.2,72.4,29.95,SE,144,0.0,4.0,70,0.00,,,0.00,Wunderground v.1.15,2013-05-21 15:28:00,
2013-05-21 11:33:00,83.7,72.4,29.95,SE,145,0.0,1.0,69,0.00,,,0.00,Wunderground v.1.15,2013-05-21 15:33:00,
2013-05-21 11:38:00,84.1,71.5,29.95,ESE,107,0.0,5.0,66,0.00,,,0.00,Wunderground v.1.15,2013-05-21 15:38:00,
2013-05-21 11:43:00,84.5,72.8,29.95,ESE,109,3.0,3.0,68,0.00,,,0.00,Wunderground v.1.15,2013-05-21 15:43:00,
2013-05-21 11:48:00,85.4,72.3,29.95,ESE,110,3.0,4.0,65,0.00,,,0.00,Wunderground v.1.15,2013-05-21 15:48:00,
2013-05-21 11:53:00,85.3,72.6,29.95,SE,129,0.0,4.0,66,0.00,,,0.00,Wunderground v.1.15,2013-05-21 15:53:00,
2013-05-21 11:58:00,85.7,73.0,29.94,ESE,114,4.0,4.0,66,0.00,,,0.00,Wunderground v.1.15,2013-05-21 15:58:00,
2013-05-21 12:03:00,86.2,73.0,29.94,ESE,116,1.0,3.0,65,0.00,,,0.00,Wunderground v.1.15,2013-05-21 16:03:00,
2013-05-21 12:08:00,86.7,71.6,29.94,SE,124,0.0,4.0,61,0.00,,,0.00,Wunderground v.1.15,2013-05-21 16:08:00,
2013-05-21 12:13:00,86.6,72.5,29.94,ESE,123,1.0,2.0,63,0.00,,,0.00,Wunderground v.1.15,2013-05-21 16:13:00,
2013-05-21 12:18:00,87.3,72.2,29.94,SSE,158,1.0,4.0,61,0.00,,,0.00,Wunderground v.1.15,2013-05-21 16:18:00,
2013-05-21 12:23:00,86.8,71.7,29.94,ESE,113,2.0,5.0,61,0.00,,,0.00,Wunderground v.1.15,2013-05-21 16:23:00,
2013-05-21 12:28:00,86.0,71.0,29.94,ESE,111,2.0,5.0,61,0.00,,,0.00,Wunderground v.1.15,2013-05-21 16:28:00,
2013-05-21 12:33:00,86.0,73.3,29.94,SE,138,0.0,1.0,66,0.00,,,0.00,Wunderground v.1.15,2013-05-21 16:33:00,
2013-05-21 12:38:00,86.4,72.3,29.94,ESE,121,3.0,5.0,63,0.00,,,0.00,Wunderground v.1.15,2013-05-21 16:38:00,
2013-05-21 12:43:00,86.2,71.6,29.94,ESE,108,3.0,6.0,62,0.00,,,0.00,Wunderground v.1.15,2013-05-21 16:43:00,
2013-05-21 12:48:00,86.9,71.8,29.94,ESE,107,0.0,6.0,61,0.00,,,0.00,Wunderground v.1.15,2013-05-21 16:48:00,
2013-05-21 12:53:00,88.0,73.3,29.93,ESE,111,0.0,4.0,62,0.00,,,0.00,Wunderground v.1.15,2013-05-21 16:53:00,
2013-05-21 12:58:00,89.3,72.6,29.94,ESE,111,1.0,4.0,58,0.00,,,0.00,Wunderground v.1.15,2013-05-21 16:58:00,
2013-05-21 13:03:00,89.2,72.5,29.94,ESE,122,0.0,4.0,58,0.00,,,0.00,Wunderground v.1.15,2013-05-21 17:03:00,
2013-05-21 13:08:00,88.7,70.5,29.93,SE,128,0.0,4.0,55,0.00,,,0.00,Wunderground v.1.15,2013-05-21 17:08:00,
2013-05-21 13:14:00,89.0,72.3,29.93,East,86,2.0,5.0,58,0.00,,,0.00,Wunderground v.1.15,2013-05-21 17:14:00,
2013-05-21 13:19:00,89.4,71.1,29.93,ESE,109,1.0,5.0,55,0.00,,,0.00,Wunderground v.1.15,2013-05-21 17:19:00,
2013-05-21 13:24:00,89.4,70.6,29.93,ESE,111,0.0,3.0,54,0.00,,,0.00,Wunderground v.1.15,2013-05-21 17:24:00,
2013-05-21 13:29:00,89.1,70.3,29.93,ESE,111,0.0,3.0,54,0.00,,,0.00,Wunderground v.1.15,2013-05-21 17:29:00,
2013-05-21 13:34:00,89.4,71.6,29.92,ESE,111,2.0,4.0,56,0.00,,,0.00,Wunderground v.1.15,2013-05-21 17:34:00,
2013-05-21 13:39:00,89.3,71.5,29.93,ESE,114,1.0,5.0,56,0.00,,,0.00,Wunderground v.1.15,2013-05-21 17:39:00,
2013-05-21 13:44:00,88.6,70.9,29.92,ESE,121,0.0,2.0,56,0.00,,,0.00,Wunderground v.1.15,2013-05-21 17:44:00,
2013-05-21 13:49:00,87.8,70.7,29.92,South,189,0.0,2.0,57,0.00,,,0.00,Wunderground v.1.15,2013-05-21 17:49:00,
2013-05-21 13:54:00,87.2,70.6,29.92,ESE,119,0.0,4.0,58,0.00,,,0.00,Wunderground v.1.15,2013-05-21 17:54:00,
2013-05-21 13:59:00,86.4,69.4,29.92,SSW,194,1.0,6.0,57,0.00,,,0.00,Wunderground v.1.15,2013-05-21 17:59:00,
2013-05-21 14:04:00,86.8,71.7,29.92,South,169,1.0,2.0,61,0.00,,,0.00,Wunderground v.1.15,2013-05-21 18:04:00,
2013-05-21 14:09:00,88.1,70.4,29.92,South,178,1.0,9.0,56,0.00,,,0.00,Wunderground v.1.15,2013-05-21 18:09:00,
2013-05-21 14:14:00,88.4,70.7,29.91,East,92,1.0,6.0,56,0.00,,,0.00,Wunderground v.1.15,2013-05-21 18:14:00,
2013-05-21 14:19:00,88.5,71.8,29.90,SSE,147,2.0,6.0,58,0.00,,,0.00,Wunderground v.1.15,2013-05-21 18:19:00,
2013-05-21 14:24:00,87.9,71.3,29.90,ESE,122,9.0,10.0,58,0.00,,,0.00,Wunderground v.1.15,2013-05-21 18:24:00,
2013-05-21 14:29:00,87.2,71.1,29.90,ESE,103,5.0,10.0,59,0.00,,,0.00,Wunderground v.1.15,2013-05-21 18:29:00,
2013-05-21 14:34:00,87.5,70.9,29.90,SE,136,0.0,3.0,58,0.00,,,0.00,Wunderground v.1.15,2013-05-21 18:34:00,
2013-05-21 14:39:00,87.6,71.0,29.89,ESE,121,1.0,3.0,58,0.00,,,0.00,Wunderground v.1.15,2013-05-21 18:39:00,
2013-05-21 14:44:00,87.1,69.5,29.89,ESE,121,0.0,3.0,56,0.00,,,0.00,Wunderground v.1.15,2013-05-21 18:44:00,
2013-05-21 14:49:00,86.8,69.2,29.88,ESE,122,1.0,3.0,56,0.00,,,0.00,Wunderground v.1.15,2013-05-21 18:49:00,
2013-05-21 14:54:00,86.3,68.8,29.88,SE,126,0.0,1.0,56,0.00,,,0.00,Wunderground v.1.15,2013-05-21 18:54:00,
2013-05-21 14:59:00,86.7,70.2,29.88,ESE,118,1.0,1.0,58,0.00,,,0.00,Wunderground v.1.15,2013-05-21 18:59:00,
2013-05-21 15:04:00,87.9,69.7,29.89,ESE,121,0.0,1.0,55,0.00,,,0.00,Wunderground v.1.15,2013-05-21 19:04:00,
2013-05-21 15:09:00,88.8,72.1,29.88,ESE,118,0.0,2.0,58,0.00,,,0.00,Wunderground v.1.15,2013-05-21 19:09:00,
2013-05-21 15:14:00,89.5,72.3,29.88,ESE,118,0.0,1.0,57,0.00,,,0.00,Wunderground v.1.15,2013-05-21 19:14:00,
2013-05-21 15:19:00,90.0,71.1,29.88,SE,130,2.0,7.0,54,0.00,,,0.00,Wunderground v.1.15,2013-05-21 19:19:00,
2013-05-21 15:24:00,89.7,70.8,29.88,SE,132,0.0,5.0,54,0.00,,,0.00,Wunderground v.1.15,2013-05-21 19:24:00,
2013-05-21 15:29:00,90.2,71.3,29.88,SE,140,0.0,6.0,54,0.00,,,0.00,Wunderground v.1.15,2013-05-21 19:29:00,
2013-05-21 15:34:00,90.0,70.6,29.88,SSE,168,1.0,2.0,53,0.00,,,0.00,Wunderground v.1.15,2013-05-21 19:34:00,
2013-05-21 15:39:00,89.4,71.1,29.88,SE,140,1.0,6.0,55,0.00,,,0.00,Wunderground v.1.15,2013-05-21 19:39:00,
2013-05-21 15:45:00,88.5,69.7,29.87,SE,138,1.0,4.0,54,0.00,,,0.00,Wunderground v.1.15,2013-05-21 19:45:00,
2013-05-21 15:50:00,89.0,70.2,29.87,SE,145,0.0,2.0,54,0.00,,,0.00,Wunderground v.1.15,2013-05-21 19:50:00,
2013-05-21 15:55:00,88.5,69.7,29.87,ESE,118,1.0,7.0,54,0.00,,,0.00,Wunderground v.1.15,2013-05-21 19:55:00,
2013-05-21 16:00:00,88.1,70.4,29.87,ESE,123,0.0,2.0,56,0.00,,,0.00,Wunderground v.1.15,2013-05-21 20:00:00,
2013-05-21 16:05:00,89.3,71.0,29.87,ESE,121,1.0,3.0,55,0.00,,,0.00,Wunderground v.1.15,2013-05-21 20:05:00,
2013-05-21 16:10:00,89.7,70.3,29.86,ESE,122,0.0,0.0,53,0.00,,,0.00,Wunderground v.1.15,2013-05-21 20:10:00,
2013-05-21 16:15:00,89.7,70.8,29.86,SSE,150,0.0,3.0,54,0.00,,,0.00,Wunderground v.1.15,2013-05-21 20:15:00,
2013-05-21 16:20:00,89.3,71.5,29.86,SSE,149,2.0,3.0,56,0.00,,,0.00,Wunderground v.1.15,2013-05-21 20:20:00,
2013-05-21 16:25:00,88.5,70.3,29.86,SSE,157,0.0,5.0,55,0.00,,,0.00,Wunderground v.1.15,2013-05-21 20:25:00,
2013-05-21 16:30:00,88.1,70.9,29.86,ESE,107,4.0,4.0,57,0.00,,,0.00,Wunderground v.1.15,2013-05-21 20:30:00,
2013-05-21 16:35:00,88.3,70.6,29.86,SW,217,1.0,4.0,56,0.00,,,0.00,Wunderground v.1.15,2013-05-21 20:35:00,
2013-05-21 16:40:00,88.6,69.8,29.86,SSW,207,0.0,1.0,54,0.00,,,0.00,Wunderground v.1.15,2013-05-21 20:40:00,
2013-05-21 16:45:00,88.6,70.4,29.86,East,98,2.0,6.0,55,0.00,,,0.00,Wunderground v.1.15,2013-05-21 20:45:00,
2013-05-21 16:50:00,88.1,69.9,29.86,South,173,4.0,5.0,55,0.00,,,0.00,Wunderground v.1.15,2013-05-21 20:50:00,
2013-05-21 16:55:00,87.1,70.0,29.86,SSE,159,1.0,6.0,57,0.00,,,0.00,Wunderground v.1.15,2013-05-21 20:55:00,
2013-05-21 17:00:00,87.0,69.4,29.86,SE,142,1.0,3.0,56,0.00,,,0.00,Wunderground v.1.15,2013-05-21 21:00:00,
2013-05-21 17:05:00,86.9,69.3,29.86,SSE,160,1.0,6.0,56,0.00,,,0.00,Wunderground v.1.15,2013-05-21 21:05:00,
2013-05-21 17:10:00,86.9,69.3,29.86,East,92,2.0,7.0,56,0.00,,,0.00,Wunderground v.1.15,2013-05-21 21:10:00,
2013-05-21 17:15:00,86.8,70.2,29.86,SSW,212,2.0,9.0,58,0.00,,,0.00,Wunderground v.1.15,2013-05-21 21:15:00,
2013-05-21 17:20:00,86.7,69.1,29.86,SSW,193,1.0,3.0,56,0.00,,,0.00,Wunderground v.1.15,2013-05-21 21:20:00,
2013-05-21 17:25:00,86.3,69.8,29.86,ESE,106,0.0,6.0,58,0.00,,,0.00,Wunderground v.1.15,2013-05-21 21:25:00,
2013-05-21 17:30:00,86.7,71.2,29.86,SSE,148,6.0,6.0,60,0.00,,,0.00,Wunderground v.1.15,2013-05-21 21:30:00,
2013-05-21 17:35:00,86.7,69.1,29.86,South,184,0.0,6.0,56,0.00,,,0.00,Wunderground v.1.15,2013-05-21 21:35:00,
2013-05-21 17:40:00,86.4,69.4,29.86,SSW,206,0.0,1.0,57,0.00,,,0.00,Wunderground v.1.15,2013-05-21 21:40:00,
2013-05-21 17:45:00,86.3,70.3,29.86,SSW,197,7.0,7.0,59,0.00,,,0.00,Wunderground v.1.15,2013-05-21 21:45:00,
2013-05-21 17:50:00,85.9,69.4,29.86,SSE,157,1.0,2.0,58,0.00,,,0.00,Wunderground v.1.15,2013-05-21 21:50:00,
2013-05-21 17:55:00,85.4,68.4,29.85,SSE,152,1.0,6.0,57,0.00,,,0.00,Wunderground v.1.15,2013-05-21 21:55:00,
2013-05-21 18:00:00,84.9,69.0,29.85,SSE,155,3.0,4.0,59,0.00,,,0.00,Wunderground v.1.15,2013-05-21 22:00:00,
2013-05-21 18:05:00,84.5,69.6,29.85,SSE,147,1.0,10.0,61,0.00,,,0.00,Wunderground v.1.15,2013-05-21 22:05:00,
2013-05-21 18:10:00,84.1,69.7,29.86,SW,214,0.0,3.0,62,0.00,,,0.00,Wunderground v.1.15,2013-05-21 22:10:00,
2013-05-21 18:15:00,83.8,70.3,29.85,South,171,1.0,10.0,64,0.00,,,0.00,Wunderground v.1.15,2013-05-21 22:15:00,
2013-05-21 18:20:00,83.7,70.2,29.85,ESE,118,1.0,2.0,64,0.00,,,0.00,Wunderground v.1.15,2013-05-21 22:20:00,
2013-05-21 18:25:00,83.5,69.6,29.85,SE,137,5.0,10.0,63,0.00,,,0.00,Wunderground v.1.15,2013-05-21 22:25:00,
2013-05-21 18:30:00,83.1,69.2,29.85,SSW,201,3.0,3.0,63,0.00,,,0.00,Wunderground v.1.15,2013-05-21 22:30:00,
2013-05-21 18:35:00,82.3,69.8,29.85,ESE,121,9.0,9.0,66,0.00,,,0.00,Wunderground v.1.15,2013-05-21 22:35:00,
2013-05-21 18:40:00,81.4,68.5,29.86,SSE,159,2.0,3.0,65,0.00,,,0.00,Wunderground v.1.15,2013-05-21 22:40:00,
2013-05-21 18:45:00,80.4,67.6,29.86,ESE,107,8.0,9.0,65,0.00,,,0.00,Wunderground v.1.15,2013-05-21 22:45:00,
2013-05-21 18:50:00,79.7,67.8,29.86,SE,138,0.0,4.0,67,0.00,,,0.00,Wunderground v.1.15,2013-05-21 22:50:00,
2013-05-21 18:55:00,79.5,68.4,29.86,ESE,107,8.0,8.0,69,0.00,,,0.00,Wunderground v.1.15,2013-05-21 22:55:00,
2013-05-21 19:00:00,79.4,68.8,29.86,ESE,102,1.0,2.0,70,0.00,,,0.00,Wunderground v.1.15,2013-05-21 23:00:00,
2013-05-21 19:05:00,79.3,69.1,29.86,East,101,1.0,3.0,71,0.00,,,0.00,Wunderground v.1.15,2013-05-21 23:05:00,
2013-05-21 19:10:00,79.2,69.4,29.86,SSW,198,0.0,1.0,72,0.00,,,0.00,Wunderground v.1.15,2013-05-21 23:10:00,
2013-05-21 19:15:00,78.9,69.5,29.86,ESE,112,2.0,6.0,73,0.00,,,0.00,Wunderground v.1.15,2013-05-21 23:15:00,
2013-05-21 19:20:00,78.7,69.7,29.86,South,180,0.0,2.0,74,0.00,,,0.00,Wunderground v.1.15,2013-05-21 23:20:00,
2013-05-21 19:25:00,78.5,69.9,29.86,South,179,0.0,2.0,75,0.00,,,0.00,Wunderground v.1.15,2013-05-21 23:25:00,
2013-05-21 19:30:00,78.2,70.0,29.86,ESE,106,1.0,1.0,76,0.00,,,0.00,Wunderground v.1.15,2013-05-21 23:30:00,
2013-05-21 19:35:00,78.1,69.9,29.86,SE,138,0.0,4.0,76,0.00,,,0.00,Wunderground v.1.15,2013-05-21 23:35:00,
2013-05-21 19:41:00,77.9,70.1,29.87,SSE,164,0.0,2.0,77,0.00,,,0.00,Wunderground v.1.15,2013-05-21 23:41:00,
2013-05-21 19:46:00,77.6,70.2,29.87,SSE,165,0.0,2.0,78,0.00,,,0.00,Wunderground v.1.15,2013-05-21 23:46:00,
2013-05-21 19:51:00,77.3,70.6,29.88,SE,136,0.0,0.0,80,0.00,,,0.00,Wunderground v.1.15,2013-05-21 23:51:00,
2013-05-21 19:56:00,77.0,70.7,29.88,East,97,0.0,6.0,81,0.00,,,0.00,Wunderground v.1.15,2013-05-21 23:56:00,
2013-05-21 20:00:00,76.7,71.1,29.88,SE,135,0.0,6.0,83,0.00,,,-99.99,WeatherLink 6.0.0,2013-05-22 00:00:00,
2013-05-21 20:01:00,76.7,71.1,29.87,ESE,121,0.0,5.0,83,0.00,,,0.00,Wunderground v.1.15,2013-05-22 00:01:00,
2013-05-21 20:06:00,76.4,70.9,29.88,SE,138,0.0,5.0,83,0.00,,,0.00,Wunderground v.1.15,2013-05-22 00:06:00,
2013-05-21 20:11:00,76.3,70.8,29.88,SE,133,2.0,5.0,83,0.00,,,0.00,Wunderground v.1.15,2013-05-22 00:11:00,
2013-05-21 20:16:00,76.2,70.7,29.88,SE,134,0.0,5.0,83,0.00,,,0.00,Wunderground v.1.15,2013-05-22 00:16:00,
2013-05-21 20:21:00,76.0,70.5,29.88,SE,140,0.0,0.0,83,0.00,,,0.00,Wunderground v.1.15,2013-05-22 00:21:00,
2013-05-21 20:26:00,75.8,70.3,29.88,South,173,3.0,4.0,83,0.00,,,0.00,Wunderground v.1.15,2013-05-22 00:26:00,
2013-05-21 20:31:00,75.7,70.2,29.88,SSE,155,1.0,3.0,83,0.00,,,0.00,Wunderground v.1.15,2013-05-22 00:31:00,
2013-05-21 20:36:00,75.5,70.0,29.88,SE,146,1.0,6.0,83,0.00,,,0.00,Wunderground v.1.15,2013-05-22 00:36:00,
2013-05-21 20:41:00,75.3,70.1,29.88,ESE,111,1.0,1.0,84,0.00,,,0.00,Wunderground v.1.15,2013-05-22 00:41:00,
2013-05-21 20:46:00,75.0,69.8,29.88,ESE,103,0.0,4.0,84,0.00,,,0.00,Wunderground v.1.15,2013-05-22 00:46:00,
2013-05-21 20:51:00,74.8,70.0,29.88,SE,124,1.0,5.0,85,0.00,,,0.00,Wunderground v.1.15,2013-05-22 00:51:00,
2013-05-21 20:56:00,74.5,69.7,29.88,South,190,0.0,5.0,85,0.00,,,0.00,Wunderground v.1.15,2013-05-22 00:56:00,
2013-05-21 21:01:00,74.2,69.4,29.88,SSE,161,0.0,3.0,85,0.00,,,0.00,Wunderground v.1.15,2013-05-22 01:01:00,
2013-05-21 21:06:00,74.0,69.2,29.88,SSE,147,0.0,3.0,85,0.00,,,0.00,Wunderground v.1.15,2013-05-22 01:06:00,
2013-05-21 21:11:00,73.8,69.0,29.88,SSE,156,0.0,1.0,85,0.00,,,0.00,Wunderground v.1.15,2013-05-22 01:11:00,
2013-05-21 21:16:00,73.6,68.8,29.88,ESE,116,0.0,1.0,85,0.00,,,0.00,Wunderground v.1.15,2013-05-22 01:16:00,
2013-05-21 21:21:00,73.4,68.6,29.88,SSE,147,0.0,0.0,85,0.00,,,0.00,Wunderground v.1.15,2013-05-22 01:21:00,
2013-05-21 21:26:00,73.3,68.9,29.88,SSE,161,0.0,1.0,86,0.00,,,0.00,Wunderground v.1.15,2013-05-22 01:26:00,
2013-05-21 21:30:00,73.1,68.7,29.88,SSE,157,0.0,2.0,86,0.00,,,-99.99,WeatherLink 6.0.0,2013-05-22 01:30:00,
2013-05-21 21:31:00,73.0,68.6,29.88,SSE,161,0.0,0.0,86,0.00,,,0.00,Wunderground v.1.15,2013-05-22 01:31:00,
2013-05-21 21:36:00,72.8,68.7,29.88,ESE,117,1.0,2.0,87,0.00,,,0.00,Wunderground v.1.15,2013-05-22 01:36:00,
2013-05-21 21:41:00,72.6,68.5,29.89,ESE,117,0.0,0.0,87,0.00,,,0.00,Wunderground v.1.15,2013-05-22 01:41:00,
2013-05-21 21:46:00,72.4,68.3,29.89,South,189,0.0,3.0,87,0.00,,,0.00,Wunderground v.1.15,2013-05-22 01:46:00,
2013-05-21 21:51:00,72.2,68.1,29.90,South,188,0.0,0.0,87,0.00,,,0.00,Wunderground v.1.15,2013-05-22 01:51:00,
2013-05-21 21:56:00,72.1,68.0,29.89,South,183,0.0,3.0,87,0.00,,,0.00,Wunderground v.1.15,2013-05-22 01:56:00,
2013-05-21 22:01:00,71.9,67.8,29.89,SSW,197,0.0,2.0,87,0.00,,,0.00,Wunderground v.1.15,2013-05-22 02:01:00,
2013-05-21 22:06:00,71.7,68.0,29.89,South,179,0.0,3.0,88,0.00,,,0.00,Wunderground v.1.15,2013-05-22 02:06:00,
2013-05-21 22:11:00,71.6,67.9,29.90,South,180,0.0,0.0,88,0.00,,,0.00,Wunderground v.1.15,2013-05-22 02:11:00,
2013-05-21 22:16:00,71.4,67.7,29.90,SSE,165,0.0,1.0,88,0.00,,,0.00,Wunderground v.1.15,2013-05-22 02:16:00,
2013-05-21 22:21:00,71.3,67.6,29.90,SSE,164,0.0,0.0,88,0.00,,,0.00,Wunderground v.1.15,2013-05-22 02:21:00,
2013-05-21 22:26:00,71.2,67.5,29.90,SSE,164,0.0,0.0,88,0.00,,,0.00,Wunderground v.1.15,2013-05-22 02:26:00,
2013-05-21 22:30:00,71.2,67.5,29.90,South,180,0.0,4.0,88,0.00,,,-99.99,WeatherLink 6.0.0,2013-05-22 02:30:00,
2013-05-21 22:31:00,71.1,67.4,29.90,SSE,164,0.0,0.0,88,0.00,,,0.00,Wunderground v.1.15,2013-05-22 02:31:00,
2013-05-21 22:36:00,71.0,67.3,29.91,ESE,115,0.0,0.0,88,0.00,,,0.00,Wunderground v.1.15,2013-05-22 02:36:00,
2013-05-21 22:41:00,71.0,67.3,29.91,ESE,115,0.0,0.0,88,0.00,,,0.00,Wunderground v.1.15,2013-05-22 02:41:00,
2013-05-21 22:46:00,70.8,67.1,29.91,ESE,115,0.0,0.0,88,0.00,,,0.00,Wunderground v.1.15,2013-05-22 02:46:00,
2013-05-21 22:51:00,70.8,67.1,29.90,ESE,115,0.0,0.0,88,0.00,,,0.00,Wunderground v.1.15,2013-05-22 02:51:00,
2013-05-21 22:56:00,70.6,66.9,29.91,ESE,115,0.0,0.0,88,0.00,,,0.00,Wunderground v.1.15,2013-05-22 02:56:00,
2013-05-21 23:01:00,70.4,66.7,29.90,ESE,115,0.0,0.0,88,0.00,,,0.00,Wunderground v.1.15,2013-05-22 03:01:00,
2013-05-21 23:06:00,70.3,66.9,29.90,ESE,115,0.0,0.0,89,0.00,,,0.00,Wunderground v.1.15,2013-05-22 03:06:00,
2013-05-21 23:11:00,70.1,66.7,29.91,ESE,115,0.0,0.0,89,0.00,,,0.00,Wunderground v.1.15,2013-05-22 03:11:00,
2013-05-21 23:16:00,69.9,66.5,29.91,ESE,115,0.0,0.0,89,0.00,,,0.00,Wunderground v.1.15,2013-05-22 03:16:00,
2013-05-21 23:21:00,69.8,66.7,29.91,ESE,115,0.0,0.0,90,0.00,,,0.00,Wunderground v.1.15,2013-05-22 03:21:00,
2013-05-21 23:26:00,69.8,67.1,29.91,ESE,115,0.0,0.0,91,0.00,,,0.00,Wunderground v.1.15,2013-05-22 03:26:00,
2013-05-21 23:31:00,69.9,66.8,29.92,ESE,115,0.0,0.0,90,0.00,,,0.00,Wunderground v.1.15,2013-05-22 03:31:00,
2013-05-21 23:37:00,70.0,66.9,29.92,ESE,115,0.0,0.0,90,0.00,,,0.00,Wunderground v.1.15,2013-05-22 03:37:00,
2013-05-21 23:42:00,70.1,67.0,29.92,ESE,115,0.0,0.0,90,0.00,,,0.00,Wunderground v.1.15,2013-05-22 03:42:00,
2013-05-21 23:47:00,70.2,67.1,29.92,ESE,115,0.0,1.0,90,0.00,,,0.00,Wunderground v.1.15,2013-05-22 03:47:00,
2013-05-21 23:52:00,70.3,66.9,29.92,ESE,115,0.0,0.0,89,0.00,,,0.00,Wunderground v.1.15,2013-05-22 03:52:00,
2013-05-21 23:57:00,70.3,66.9,29.92,ESE,115,0.0,0.0,89,0.00,,,0.00,Wunderground v.1.15,2013-05-22 03:57:00,